Probability
0 0 0 0 0 0 0 0 0 0 0 0 0 0 0 0 0 0 0 0 0 0 0 0 0 0 0 0 0 0 0 0 0 0 0 0 0 0
0 0 0 0 0 0 0 0 0 0 0 0 0 0 0 0 0 0 0 0 0 0 0 0 0 0 0 0 0 0 0 0 0 0 0 0 0 0
0 0 0 0 0 0 0 0 0 0 0 0 0 0 0 0 0 0 0 0 0 0 0 0 0 0 0 0 0 0 0 0 0 0 0 0 0 0
0 0 0 0 0 0 0 0 0 0 0 0 0 0 0 0 0 0 0 0 0 0 0 0 0 0 0 0 0 0 0 0 0 0 0 0 0 0
0 0 0 0 0 0 0 0 0 0 0 0 0 0 0 0 0 0 0 0 0 0 0 0 0 0 0 0 0 0 0 0 0 0 0 0 0 0
0 0 0 0 0 0 0 0 0 0 0 0 0 0 0 0 0 0 0 0 0 0 0 0 0 0 0 0 0 0 0 0 0 0 0 0 0 0
0 0 0 0 0 0 0 0 0 0 0 0 0 0 0 0 0 0 0 0 0 0 0 0 0 0 0 0 0 0 0 0 0 0 0 0 0 0
0 0 0 0 0 0 0 0 0 0 0 0 0 0 0 0 0 0 0 0 0 0 0 0 0 0 0 0 0 0 0 0 0 0 0 0 0 0
0 0 0 0 0 0 0 0 0 0 0 0 0 0 0 0 0 0 0 0 0 0 0 0 0 0 0 0 0 0 0 0 0 0 0 0 0 0
0 0 0 0 0 0 0 0 0 0 0 0 0 0 0 0 0 0 0 0 0 0 0 0 0 0 0 0 0 0 0 0 0 0 0 0 0 0
0 0 0 0 0 0 0 0 0 0 0 0 0 0 0 0 0 0 0 0 0 0 0 0 0 0 0 0 0 0 0 0 0 0 0 0 0 0
0 0 0 0 0 0 0 0 0 0 0 0 0 0 0 0 0 0 0 0 0 0 0 0 0 0 0 0 0 0 0 0 0 0 0 0 0 0
0 0 0 0 0 0 0 0 0 0 0 0 0 0 0 0 0 0 0 0 0 0 0 0 0 0 0 0 0 0 0 0 0 0 0 0 0 0
0 0 0 0 0 0 0 0 0 0 0 0 0 0 0 0 0 0 0 0 0 0 0 0 0 0 0 0 0 0 0 0 0 0 0 0 0 0
0 0 0 0 0 0 0 0 0 0 0 0 0 0 0 0 0 0 0 0 0 0 0 0 0 0 0 0 0 0 0 0 0 0 0 0 0 0
0 0 0 0 0 0 0 0 0 0 0 0 0 0 0 0 0 0 0 0 0 0 0 0 0 0 0 0 0 0 0 0 0 0 0 0 0 0
0 0 0 0 0 0 0 0 0 0 0 0 0 0 0 0 0 0 0 0 0 0 0 0 0 0 0 0 0 0 0 0 0 0 0 0 0 0
0 0 0 0 0 0 0 0 0 0 0 0 0 0 0 0 0 0 0 0 0 0 0 0 0 0 0 0 0 0 0 0 0 0 0 0 0 0
0 0 0 0 0 0 0 0 0 0 0 0 0 0 0 0 0 0 0 0 0 0 0 0 0 0 0 0 0 0 0 0 0 0 0 0 0 0
0 0 0 0 0 0 0 0 0 0 0 0 0 0 0 0 0 0 0 0 0 0 0 0 0 0 0 0 0 0 0 0 0 0 0 0 0 0
0 0 0 0 0 0 0 0 0 0 0 0 0 0 0 0 0 0 0 0 0 0 0 0 0 0 0 0 0 0 0 0 0 0 0 0 0 0
0 0 0 0 0 0 0 0 0 0 0 0 0 0 0 0 0 0 0 0 0 0 0 0 0 0 0 0 0 0 0 0 0 0 0 0 0 0
0 0 0 0 0 0 0 0 0 0 0 0 0 0 0 0 0 0 0 0 0 0 0 0 0 0 0 0 0 0 0 0 0 0 0 0 0 0
Height
5687 5683 5678 5673 5669 5664 5659 5655 5651 5648 5645 5638 5632 5626 5621 5616 5611 5605 5601 5596 5591 5585 5580 5575 5570 5566 5563 5559 5556 5554 5552 5550 5548 5547 5547 5546 5547 5547
5675 5671 5666 5661 5656 5651 5646 5641 5636 5632 5629 5624 5618 5612 5606 5600 5594 5588 5583 5577 5571 5565 5559 5554 5549 5544 5540 5536 5533 5530 5528 5526 5524 5523 5522 5522 5522 5523
5663 5659 5653 5648 5643 5638 5633 5627 5622 5617 5613 5609 5602 5596 5589 5583 5576 5569 5562 5556 5550 5544 5537 5531 5525 5520 5515 5511 5507 5504 5501 5499 5497 5496 5495 5495 5496 5497
5651 5646 5641 5635 5630 5625 5619 5613 5608 5602 5596 5592 5587 5579 5572 5564 5557 5550 5542 5535 5527 5520 5512 5505 5499 5493 5488 5483 5479 5476 5473 5471 5470 5468 5468 5469 5469 5469
5639 5634 5628 5622 5617 5611 5605 5599 5593 5587 5580 5575 5569 5562 5554 5545 5537 5530 5521 5513 5505 5496 5488 5480 5472 5466 5460 5455 5451 5448 5445 5444 5443 5441 5440 5440 5441 5442
5626 5621 5615 5609 5603 5597 5591 5585 5578 5571 5564 5557 5551 5543 5535 5525 5516 5508 5500 5491 5481 5471 5463 5454 5447 5441 5435 5430 5426 5422 5420 5418 5417 5416 5415 5416 5416 5418
5614 5608 5602 5596 5589 5583 5576 5570 5562 5555 5547 5539 5532 5524 5515 5504 5494 5484 5476 5468 5459 5446 5438 5431 5424 5418 5413 5408 5404 5400 5398 5396 5395 5394 5394 5394 5395 5396
5601 5595 5589 5582 5576 5569 5561 5554 5545 5537 5528 5520 5512 5502 5493 5482 5472 5462 5452 5444 5438 5427 5416 5411 5403 5398 5393 5389 5385 5382 5380 5378 5377 5377 5377 5377 5378 5380
5587 5581 5574 5568 5560 5553 5546 5538 5529 5518 5508 5499 5491 5481 5471 5461 5451 5442 5432 5422 5415 5406 5398 5394 5387 5382 5377 5373 5370 5367 5365 5364 5363 5363 5363 5363 5365 5367
5573 5566 5560 5552 5544 5536 5529 5521 5512 5502 5491 5480 5471 5461 5450 5439 5429 5420 5412 5405 5399 5390 5381 5377 5373 5368 5364 5360 5357 5355 5353 5353 5352 5352 5352 5353 5354 5356
5559 5552 5544 5536 5528 5519 5511 5503 5495 5484 5473 5462 5452 5441 5431 5420 5410 5402 5395 5388 5383 5377 5369 5364 5360 5356 5353 5349 5346 5345 5344 5344 5343 5343 5343 5344 5345 5347
5545 5537 5529 5520 5511 5500 5491 5483 5474 5465 5455 5446 5435 5424 5413 5404 5394 5386 5378 5373 5368 5364 5358 5353 5349 5345 5344 5341 5338 5337 5336 5336 5336 5336 5336 5337 5338 5339
5529 5521 5512 5503 5493 5483 5472 5463 5454 5445 5436 5427 5417 5407 5397 5388 5380 5373 5366 5360 5355 5352 5348 5344 5340 5337 5335 5334 5331 5330 5330 5329 5329 5330 5330 5331 5332 5333
5512 5504 5495 5485 5475 5465 5455 5445 5435 5426 5417 5407 5398 5390 5381 5374 5367 5361 5355 5349 5344 5341 5338 5335 5332 5330 5328 5327 5326 5324 5324 5323 5324 5324 5325 5325 5326 5327
5494 5486 5477 5467 5457 5448 5439 5428 5418 5408 5398 5390 5382 5374 5367 5361 5355 5349 5344 5339 5335 5331 5329 5326 5325 5323 5322 5321 5320 5319 5318 5318 5318 5319 5319 5320 5321 5322
5476 5468 5459 5450 5440 5431 5421 5411 5400 5391 5382 5374 5367 5360 5354 5348 5343 5338 5334 5330 5326 5323 5321 5319 5318 5317 5316 5315 5314 5313 5313 5313 5313 5313 5314 5315 5315 5316
5458 5451 5443 5434 5425 5415 5406 5396 5386 5376 5367 5360 5353 5347 5342 5337 5332 5327 5323 5320 5318 5316 5314 5312 5311 5310 5310 5309 5308 5308 5308 5308 5308 5309 5309 5310 5311 5312
5440 5433 5425 5416 5407 5398 5389 5380 5370 5361 5353 5346 5340 5335 5330 5325 5321 5317 5314 5312 5310 5309 5307 5306 5305 5305 5304 5303 5303 5303 5303 5303 5303 5304 5305 5306 5307 5308
5423 5415 5406 5398 5389 5380 5372 5363 5355 5347 5340 5334 5328 5323 5319 5315 5312 5309 5306 5305 5303 5302 5301 5300 5299 5299 5299 5298 5298 5298 5298 5298 5299 5300 5301 5302 5303 5304
5405 5397 5389 5380 5372 5364 5356 5348 5341 5334 5327 5321 5316 5312 5309 5306 5303 5301 5299 5298 5297 5296 5295 5294 5294 5293 5293 5293 5293 5293 5294 5294 5295 5296 5297 5298 5300 5301
5388 5380 5372 5364 5356 5349 5341 5334 5327 5321 5315 5310 5306 5303 5300 5297 5295 5294 5292 5291 5290 5290 5289 5289 5288 5288 5288 5288 5289 5289 5290 5290 5291 5292 5294 5295 5296 5298
5371 5363 5355 5348 5341 5334 5327 5321 5315 5309 5304 5300 5297 5294 5292 5290 5288 5287 5286 5285 5284 5284 5284 5283 5283 5283 5283 5284 5284 5285 5286 5287 5288 5289 5290 5292 5293 5295
5354 5347 5340 5333 5326 5319 5313 5308 5302 5298 5294 5291 5288 5286 5284 5282 5281 5280 5279 5279 5279 5278 5278 5278 5278 5278 5279 5279 5280 5281 5282 5283 5284 5286 5287 5289 5290 5292
Wind_Speed
48 48 48 49 50 51 52 52 53 52 51 52 54 55 56 57 59 60 62 63 64 66 68 69 70 71 72 72 72 73 73 74 74 74 75 75 75 75
48 49 49 50 51 52 52 53 54 55 54 54 56 57 59 60 62 63 65 66 67 69 70 71 72 73 74 75 76 76 77 77 78 78 78 78 78 78
49 50 51 51 52 53 53 54 55 56 57 57 59 61 62 64 65 67 68 70 71 72 73 74 75 76 76 77 78 78 79 79 80 80 80 80 80 80
50 51 52 53 53 54 55 56 57 58 60 60 61 63 65 67 69 70 72 74 75 76 77 78 79 79 79 79 79 78 78 78 79 79 79 80 80 80
51 52 53 54 55 55 56 57 59 60 62 64 64 67 69 71 73 74 75 77 78 79 80 80 80 79 79 78 77 75 75 74 74 74 74 74 75 75
53 53 54 55 56 57 58 60 61 63 65 67 69 70 72 74 76 78 78 79 79 80 79 78 76 75 73 72 71 70 69 67 66 66 66 66 66 67
54 55 56 56 57 59 60 62 64 66 69 71 73 74 75 77 79 80 80 78 77 76 74 71 69 67 65 64 62 61 59 57 56 56 56 56 56 56
55 56 57 58 59 61 63 65 68 70 73 75 76 77 78 79 80 79 78 76 72 69 66 62 61 59 57 56 54 52 50 48 47 46 46 47 47 47
56 57 58 59 61 64 66 68 71 74 77 78 78 78 78 79 78 76 74 70 65 61 59 55 53 51 50 48 46 45 43 41 40 38 38 38 39 39
58 59 60 62 65 67 69 71 74 75 76 77 78 78 78 78 75 72 68 64 59 55 53 49 46 45 43 41 40 38 36 34 33 32 31 31 31 32
59 61 63 66 68 71 73 74 75 75 76 77 78 77 76 73 70 67 63 58 53 48 47 44 41 39 37 35 33 32 30 28 27 26 26 26 27 28
62 64 67 69 71 73 75 75 75 75 75 76 76 74 71 68 65 62 57 53 48 43 41 40 37 35 31 30 29 27 25 24 23 22 22 22 23 24
64 67 69 71 72 74 74 75 74 75 76 76 73 69 65 62 58 55 51 48 44 40 37 35 33 30 27 25 25 24 22 20 19 19 19 19 20 21
68 69 71 72 72 72 73 74 74 75 75 72 68 63 59 55 52 49 47 44 41 37 34 31 28 25 24 22 22 22 21 19 18 17 17 17 18 18
70 71 71 71 71 71 72 73 74 74 72 67 62 58 54 51 48 46 43 40 37 34 30 27 25 23 22 21 21 20 20 19 18 16 16 16 17 17
70 70 69 69 71 72 72 72 71 70 67 62 57 53 50 48 45 43 39 36 33 30 27 24 22 21 20 19 19 19 18 18 17 16 16 16 16 16
70 69 70 70 71 71 70 69 68 65 61 57 53 50 47 44 41 38 35 31 28 26 24 22 21 20 19 18 17 17 17 17 16 15 15 15 15 14
71 71 71 71 71 70 68 66 63 60 57 53 50 47 43 40 37 33 30 27 25 23 22 20 19 18 18 17 16 15 15 15 15 14 13 13 13 13
72 71 71 70 68 67 65 62 59 56 53 50 46 42 38 35 32 29 27 24 23 21 20 19 18 17 17 16 15 14 13 13 13 13 12 12 12 12
71 70 69 67 65 64 61 58 55 52 49 45 41 37 33 30 28 26 24 23 21 20 19 18 17 17 16 15 14 13 13 12 12 12 11 11 11 11
69 67 66 64 62 60 57 54 52 48 44 40 36 32 30 27 25 24 22 21 19 19 18 17 16 16 15 14 14 13 12 11 11 11 11 10 11 11
66 64 62 60 59 56 54 51 48 44 39 35 32 30 27 25 23 22 21 19 18 18 17 16 16 15 15 14 14 13 12 12 11 11 10 10 10 10
63 61 59 58 56 54 50 47 43 39 35 32 29 27 25 24 22 21 19 18 17 17 16 16 15 15 14 14 13 13 12 12 12 12 11 11 11 11
Wind_Direction
297 297 298 298 298 298 297 297 296 296 295 294 293 293 292 292 291 291 290 289 288 287 286 284 283 282 280 279 277 276 275 274 273 272 271 270 269 267
298 299 299 299 299 299 299 298 298 298 297 296 295 295 294 294 294 293 292 291 290 288 287 286 284 283 281 280 278 277 275 274 273 272 271 270 268 267
299 300 300 300 300 299 299 299 299 299 298 298 297 297 297 296 296 295 294 293 292 291 290 289 287 285 284 282 280 278 276 274 273 272 270 269 267 266
300 301 300 300 300 300 300 300 300 300 299 299 299 299 299 298 297 297 296 296 295 294 293 291 290 288 286 284 282 280 278 276 274 272 270 268 267 266
301 301 300 300 300 300 300 300 300 301 301 301 301 301 300 300 299 299 298 298 297 295 294 292 291 289 287 285 283 281 279 277 274 272 270 269 267 266
301 301 301 301 301 301 301 301 301 301 301 302 302 302 302 301 301 300 300 299 298 296 294 293 291 289 287 285 284 282 280 278 275 273 270 268 266 265
300 301 301 301 301 301 301 302 302 302 302 303 303 303 303 302 302 302 302 301 300 298 295 293 291 290 288 286 285 283 281 278 275 272 269 267 265 263
301 301 301 302 302 302 302 303 303 303 304 304 304 305 304 304 304 304 303 302 301 299 297 295 293 291 289 287 285 283 281 279 276 273 269 266 264 262
301 302 302 302 302 302 303 303 304 304 304 305 306 306 306 305 305 305 304 304 303 300 298 296 294 292 290 288 285 283 281 279 277 273 270 266 262 258
302 302 302 303 303 303 303 304 304 305 305 305 307 307 307 306 306 305 305 304 303 301 299 297 294 293 291 288 285 283 281 279 277 273 268 263 259 257
302 302 303 303 304 303 304 305 306 306 306 306 307 307 307 306 305 305 305 304 303 301 298 298 296 293 291 288 285 283 281 279 277 273 268 263 259 257
302 303 304 304 304 305 305 306 306 306 307 308 308 307 306 306 305 305 304 304 303 301 298 297 296 293 289 286 284 281 280 278 275 271 266 262 259 256
303 304 304 305 305 305 306 307 307 308 308 309 308 307 306 305 304 304 304 303 303 302 299 297 294 291 288 283 282 281 280 278 275 271 266 263 260 255
304 304 305 305 306 306 307 307 308 309 309 309 308 307 305 304 304 303 303 303 302 300 298 295 292 288 285 282 280 280 279 278 275 272 267 264 261 256
304 305 306 306 306 307 308 308 309 309 309 309 308 306 305 304 303 303 302 301 300 298 295 292 289 286 283 280 278 278 278 278 274 270 267 264 261 257
305 306 306 307 307 308 309 309 309 309 309 308 307 306 304 303 302 302 301 299 297 294 293 290 287 284 282 280 278 276 276 275 274 270 266 263 261 256
305 306 306 307 307 308 308 308 309 308 308 307 306 305 303 302 301 301 299 296 294 291 290 288 285 282 281 279 276 275 274 272 271 269 265 261 259 255
305 306 307 307 308 308 308 309 309 308 307 306 305 304 302 301 300 299 296 294 291 288 286 285 283 281 280 279 276 274 273 270 268 266 262 258 256 252
306 307 307 308 308 309 309 309 308 307 306 305 304 302 301 299 297 296 293 291 287 285 284 283 281 279 277 276 275 274 271 267 264 260 257 254 253 249
306 307 307 308 308 308 308 308 307 306 305 304 302 300 299 297 295 293 291 288 284 282 281 280 279 277 273 271 270 270 268 264 260 255 252 249 247 244
306 307 307 307 307 308 308 307 306 305 304 302 299 297 296 294 292 291 288 285 282 281 278 277 276 274 270 268 267 265 263 259 254 250 248 247 244 242
306 306 307 307 307 307 307 306 305 303 301 298 296 295 293 290 288 287 285 281 279 279 276 273 272 270 267 265 264 260 258 254 248 246 245 244 242 239
306 306 306 306 306 306 305 305 303 300 297 294 293 291 289 286 284 283 281 277 276 275 273 271 268 266 264 262 260 256 254 251 246 243 242 242 240 237